[[{"header":{"parameterUnit":"m.s-1","parameterCategory":1,"la1":30.2991,"la2":30.254,"lo1":-89.0895,"lo2":-89.0444,"dy":0.0017,"dx":0.0017,"nx":28,"ny":28,"refTime":"2025-08-26T03:00:00:Z","depth":0,"parameterNumber":2,"parameterNumberName":"U-component_of_WINDS"},"data":[0,0,0,0,0,0,0,0,0,0,0,0,0,0,0,0,0,0,0,0,0,0,0,0,0,0,0,0,0,0,0,0,0,0,0,0,0,0,0,0,0,0,0,0,0,0,0,0,0,0,0,0,0,0,0,0,0,0,-0.1742,-0.1741,0,-0.1613,-0.1612,-0.161,-0.1532,-0.1532,-0.1532,-0.1531,-0.1398,-0.1395,-0.1392,0,0,0,0,0,0,0,0,0,0,0,0,0,-0.1922,-0.1919,-0.1742,-0.1741,-0.1739,-0.1613,-0.1611,-0.161,-0.1532,-0.1532,-0.1531,-0.1531,-0.1399,-0.1395,-0.1391,0,0,0,0,0,0,0,0,0,0,0,0,0,-0.1824,-0.1918,-0.1743,-0.1685,-0.1679,-0.1614,-0.1611,-0.1609,-0.1532,-0.1532,-0.1531,-0.1531,-0.14,-0.1396,-0.1391,-0.1372,0,0,-0.1376,-0.1374,0,0,0,0,0,0,0,0,-0.1829,-0.1817,-0.1695,-0.1689,-0.1682,-0.1588,-0.1626,-0.153,-0.1533,-0.1588,-0.1531,-0.1531,-0.1462,-0.1452,-0.1429,-0.1366,-0.136,-0.1376,-0.1373,-0.1371,-0.1369,0,0,0,0,0,0,0,-0.1836,-0.1822,-0.1691,-0.1694,-0.1685,-0.1666,-0.1652,-0.1607,-0.1529,-0.1583,-0.1577,-0.1563,-0.1458,-0.1434,-0.1425,-0.1358,-0.1376,-0.1372,-0.1369,-0.1367,-0.1275,-0.1275,0,0,0,0,0,0,-0.1852,-0.1828,-0.1695,-0.1687,-0.1756,-0.1663,-0.1647,-0.1619,-0.153,-0.1516,-0.1564,-0.156,-0.1442,-0.1431,-0.142,-0.1393,-0.1371,-0.1366,-0.1363,-0.1275,-0.1275,-0.1276,0,0,0,0,0,0,-0.1856,-0.1841,-0.17,-0.1756,-0.1737,-0.1661,-0.163,-0.1617,-0.1592,-0.1515,-0.1501,-0.1553,-0.1441,-0.1427,-0.1385,-0.1388,-0.1364,-0.136,-0.1274,-0.1275,-0.1275,-0.134,0,0,0,0,0,0,-0.1862,-0.1843,-0.1835,-0.1757,-0.1734,-0.1668,-0.163,-0.1614,-0.1584,-0.1578,-0.1501,-0.1488,-0.144,-0.1393,-0.138,-0.1381,-0.1356,-0.1273,-0.1274,-0.1275,-0.1337,-0.1342,-0.1347,0,0,0,0,0,-0.1869,-0.1858,-0.1835,-0.1819,-0.1723,-0.1668,-0.1655,-0.16,-0.1585,-0.1576,-0.1527,-0.1491,-0.1389,-0.1389,-0.1374,-0.1373,-0.1273,-0.1274,-0.1275,-0.1335,-0.1341,-0.1347,0,0,0,0,0,0,-0.1938,-0.1846,-0.182,-0.1784,-0.1734,-0.1655,-0.1643,-0.1609,-0.1562,-0.1558,-0.1491,-0.1475,-0.144,-0.1402,-0.1403,-0.1351,-0.1327,-0.1325,-0.1377,-0.1383,-0.1388,-0.1398,-0.1352,0,0,0,0,0,-0.1949,-0.1913,-0.1834,-0.181,-0.1786,-0.1719,-0.1693,-0.1655,-0.1601,-0.158,-0.1527,-0.1476,-0.1433,-0.1406,-0.1361,-0.1331,-0.1314,-0.1323,-0.1328,-0.1333,-0.1332,-0.1315,-0.1318,-0.1279,-0.1279,-0.1279,0,0,-0.1972,-0.1917,-0.1898,-0.1822,-0.178,-0.1744,-0.1702,-0.1665,-0.1638,-0.1574,-0.1532,-0.1492,-0.143,-0.1395,-0.1376,-0.1362,-0.1339,-0.1334,-0.1338,-0.1335,-0.1316,-0.132,-0.1323,-0.128,-0.1279,-0.1279,0,0,-0.1994,-0.1949,-0.1924,-0.1883,-0.1819,-0.1774,-0.1769,-0.1695,-0.1666,-0.1622,-0.1574,-0.1541,-0.1467,-0.1426,-0.1395,-0.1404,-0.1369,-0.1391,-0.1418,-0.1402,-0.1405,-0.1408,-0.1412,-0.1414,-0.1391,-0.1391,-0.1391,0,-0.2031,-0.1974,-0.1916,-0.1882,-0.1851,-0.1792,-0.1767,-0.1729,-0.1654,-0.1634,-0.1619,-0.1527,-0.1481,-0.1436,-0.1438,-0.1415,-0.1407,-0.14,-0.1409,-0.1411,-0.1413,-0.1416,-0.1418,-0.1394,-0.1394,-0.1394,-0.1393,0,-0.2023,-0.1985,-0.1972,-0.1902,-0.1869,-0.184,-0.1778,-0.1751,-0.1716,-0.1674,-0.1631,-0.1574,-0.1518,-0.1504,-0.1469,-0.1454,-0.1448,-0.1422,-0.1397,-0.1421,-0.1423,-0.1424,-0.1399,-0.1398,-0.1397,-0.1396,0,0,-0.2086,-0.1985,-0.1981,-0.1949,-0.1875,-0.1844,-0.1813,-0.1759,-0.1738,-0.1689,-0.1661,-0.1601,-0.1577,-0.1543,-0.1502,-0.1488,-0.1501,-0.1464,-0.1462,-0.1474,-0.1482,-0.1503,-0.1506,-0.1477,-0.1477,-0.1477,-0.1488,0,-0.2099,-0.204,-0.1987,-0.1947,-0.1912,-0.1856,-0.1829,-0.1781,-0.174,-0.1704,-0.1659,-0.1618,-0.1589,-0.1568,-0.1551,-0.1503,-0.1502,-0.1501,-0.1451,-0.145,-0.147,-0.1507,-0.1528,-0.1542,-0.1488,-0.1489,-0.1489,0,-0.2106,-0.206,-0.2018,-0.1948,-0.1931,-0.1908,-0.1855,-0.1821,-0.1765,-0.1737,-0.1699,-0.1657,-0.1622,-0.16,-0.1551,-0.1552,-0.1528,-0.1502,-0.1501,-0.1495,-0.1472,-0.1503,-0.1544,-0.1547,-0.1489,-0.1489,-0.1489,0,-0.2159,-0.2085,-0.2051,-0.2025,-0.1943,-0.1928,-0.1893,-0.1837,-0.1808,-0.1761,-0.1742,-0.1692,-0.1665,-0.1627,-0.1573,-0.1562,-0.153,-0.1503,-0.1506,-0.1508,-0.1503,-0.1504,-0.1542,-0.1486,-0.1486,-0.1486,-0.1486,0,-0.2179,-0.2156,-0.2074,-0.2053,-0.2025,-0.1964,-0.1938,-0.1898,-0.1849,-0.182,-0.1767,-0.1741,-0.167,-0.1635,-0.1592,-0.1559,-0.1547,-0.1523,-0.1513,-0.1529,-0.1532,-0.1513,-0.1512,-0.1486,-0.1486,-0.1486,-0.1486,0,-0.2234,-0.2177,-0.2136,-0.2062,-0.2043,-0.2026,-0.1962,-0.194,-0.1897,-0.186,-0.1848,-0.178,-0.1736,-0.1678,-0.1616,-0.1587,-0.156,-0.1542,-0.158,-0.1573,-0.158,-0.1581,-0.1609,-0.161,-0.1552,-0.1553,-0.1553,0,-0.2251,-0.2232,-0.2156,-0.2133,-0.21,-0.2063,-0.2034,-0.1973,-0.1945,-0.1881,-0.1867,-0.1819,-0.1778,-0.1711,-0.1656,-0.1609,-0.159,-0.1603,-0.1583,-0.16,-0.1592,-0.1595,-0.1593,-0.1609,-0.1609,-0.161,-0.1611,0,-0.2289,-0.2263,-0.2223,-0.2174,-0.2141,-0.2099,-0.2054,-0.2038,-0.1969,-0.194,-0.1895,-0.1863,-0.18,-0.1754,-0.17,-0.1663,-0.1626,-0.1618,-0.1616,-0.1633,-0.1656,-0.1646,-0.1595,-0.1617,-0.1617,-0.1616,-0.1616,-0.1616,-0.2327,-0.2308,-0.2252,-0.221,-0.217,-0.213,-0.2106,-0.206,-0.2022,-0.1967,-0.1933,-0.189,-0.1836,-0.1759,-0.1724,-0.169,-0.1675,-0.1673,-0.1672,-0.1673,-0.1679,-0.1661,-0.168,-0.1679,-0.1679,-0.1679,-0.1679,0,-0.2364,-0.2325,-0.2287,-0.2227,-0.2194,-0.2162,-0.2111,-0.2086,-0.2049,-0.2002,-0.1963,-0.1912,-0.1867,-0.1809,-0.176,-0.1744,-0.1726,-0.1734,-0.1735,-0.1728,-0.1694,-0.1701,-0.1749,-0.1749,-0.1749,-0.1749,-0.1749,-0.1749,-0.2379,-0.2346,-0.2313,-0.226,-0.2221,-0.2179,-0.2153,-0.2117,-0.2079,-0.2025,-0.1987,-0.195,-0.1898,-0.1846,-0.1804,-0.1788,-0.1773,-0.1786,-0.1766,-0.1736,-0.173,-0.1724,-0.173,-0.1783,-0.1783,-0.1802,-0.1802,-0.1802]},{"header":{"parameterUnit":"m.s-1","parameterCategory":1,"la1":30.2991,"la2":30.254,"lo1":-89.0895,"lo2":-89.0444,"dy":0.0017,"dx":0.0017,"nx":28,"ny":28,"refTime":"2025-08-26T03:00:00:Z","depth":0,"parameterNumber":3,"parameterNumberName":"V-component_of_WINDS"},"data":[0,0,0,0,0,0,0,0,0,0,0,0,0,0,0,0,0,0,0,0,0,0,0,0,0,0,0,0,0,0,0,0,0,0,0,0,0,0,0,0,0,0,0,0,0,0,0,0,0,0,0,0,0,0,0,0,0,0,1.5825,1.5824,0,1.5763,1.5763,1.5762,1.57,1.5699,1.5699,1.5698,1.5633,1.5633,1.5632,0,0,0,0,0,0,0,0,0,0,0,0,0,1.5888,1.5888,1.5825,1.5824,1.5824,1.5764,1.5763,1.5762,1.57,1.5699,1.5698,1.5697,1.5634,1.5633,1.5632,0,0,0,0,0,0,0,0,0,0,0,0,0,1.5847,1.5887,1.5825,1.5786,1.5781,1.5764,1.5763,1.5762,1.5701,1.5699,1.5698,1.5697,1.5634,1.5633,1.5631,1.5647,0,0,1.5627,1.5626,0,0,0,0,0,0,0,0,1.585,1.5845,1.5792,1.5788,1.5784,1.5738,1.5761,1.5723,1.5701,1.5731,1.5698,1.5696,1.5669,1.5665,1.5656,1.5644,1.5642,1.5627,1.5626,1.5625,1.5625,0,0,0,0,0,0,0,1.5853,1.5847,1.5801,1.5792,1.5786,1.5771,1.5763,1.5754,1.5708,1.5729,1.5724,1.5718,1.5667,1.5658,1.5654,1.5641,1.5627,1.5626,1.5625,1.5624,1.5637,1.5638,0,0,0,0,0,0,1.5862,1.585,1.5803,1.5799,1.5814,1.5771,1.5762,1.5754,1.5708,1.57,1.5719,1.5715,1.5661,1.5656,1.5652,1.5665,1.5625,1.5624,1.5623,1.5636,1.5637,1.5638,0,0,0,0,0,0,1.5863,1.5858,1.5805,1.5823,1.5815,1.5771,1.5762,1.5754,1.5744,1.57,1.5692,1.5718,1.5659,1.5654,1.5648,1.5662,1.5623,1.5622,1.5634,1.5636,1.5638,1.5693,0,0,0,0,0,0,1.5865,1.5859,1.5865,1.5824,1.5815,1.5803,1.5763,1.5753,1.5742,1.5737,1.5697,1.5689,1.5658,1.5651,1.5647,1.5659,1.5621,1.5633,1.5635,1.5637,1.569,1.5696,1.5702,0,0,0,0,0,1.5868,1.5883,1.5865,1.586,1.5821,1.5804,1.5799,1.5763,1.5744,1.5748,1.572,1.5691,1.5662,1.5651,1.5646,1.5658,1.5632,1.5634,1.5637,1.5687,1.5695,1.5702,0,0,0,0,0,0,1.5926,1.5877,1.5857,1.5859,1.5836,1.5794,1.5799,1.5773,1.5755,1.575,1.5706,1.5698,1.5697,1.5678,1.5666,1.567,1.5642,1.5644,1.5682,1.569,1.5696,1.5699,1.562,0,0,0,0,0,1.5939,1.593,1.5888,1.5894,1.5884,1.5844,1.5835,1.5809,1.5784,1.5774,1.5745,1.5721,1.5706,1.5698,1.5682,1.5688,1.5677,1.5694,1.57,1.5705,1.5706,1.5706,1.5712,1.5647,1.5647,1.5647,0,0,1.5966,1.5938,1.5935,1.5905,1.5884,1.5875,1.5836,1.5828,1.5821,1.5772,1.5765,1.5744,1.5714,1.5714,1.5713,1.5697,1.5722,1.5709,1.5713,1.5711,1.5709,1.5715,1.5721,1.5649,1.5648,1.5648,0,0,1.6009,1.5989,1.599,1.5971,1.594,1.5913,1.5914,1.5876,1.586,1.5852,1.5815,1.5806,1.5782,1.5762,1.5748,1.5785,1.5756,1.5782,1.5813,1.5813,1.5818,1.5822,1.5833,1.5837,1.5784,1.5784,1.5784,0,1.6046,1.6031,1.5994,1.5988,1.5975,1.5933,1.5933,1.5916,1.5882,1.5874,1.5858,1.5827,1.5804,1.5797,1.5806,1.5798,1.5796,1.5784,1.5821,1.5824,1.5828,1.5837,1.5841,1.5787,1.5786,1.5786,1.5786,0,1.6076,1.6067,1.6072,1.604,1.6028,1.6026,1.5988,1.5981,1.5957,1.5932,1.5924,1.5895,1.5872,1.587,1.5846,1.586,1.5851,1.5829,1.5799,1.5837,1.5845,1.5849,1.5791,1.579,1.5789,1.5788,0,0,1.6152,1.61,1.6102,1.6087,1.605,1.6042,1.6038,1.6016,1.6009,1.5988,1.5981,1.5963,1.5942,1.5927,1.5901,1.5902,1.5929,1.5879,1.5878,1.5887,1.594,1.5954,1.5959,1.5912,1.5913,1.5913,1.5941,0,1.6186,1.6175,1.6142,1.6141,1.6131,1.6091,1.6087,1.6064,1.6041,1.6029,1.6004,1.599,1.5965,1.5955,1.5954,1.5926,1.5939,1.5924,1.5903,1.5903,1.5909,1.5964,1.5979,1.6007,1.5944,1.5945,1.5945,0,1.6224,1.6205,1.6203,1.6166,1.6161,1.6158,1.6134,1.6124,1.6097,1.608,1.6064,1.6035,1.6027,1.6003,1.5991,1.5982,1.5972,1.5957,1.5957,1.5951,1.5924,1.5956,1.6015,1.6018,1.595,1.595,1.595,0,1.6275,1.6249,1.6244,1.6233,1.6191,1.6189,1.6172,1.6144,1.6132,1.6112,1.6104,1.6084,1.6072,1.6056,1.6022,1.6008,1.6013,1.5987,1.5997,1.5998,1.5997,1.5997,1.6052,1.5997,1.5997,1.5997,1.5996,0,1.6315,1.6314,1.6266,1.6263,1.6261,1.6224,1.6223,1.6202,1.6177,1.6168,1.6134,1.6126,1.6084,1.6071,1.6045,1.6038,1.6033,1.6018,1.6011,1.6019,1.6021,1.601,1.6006,1.5998,1.5997,1.5997,1.5997,0,1.637,1.6338,1.6329,1.6291,1.6281,1.6281,1.6248,1.6243,1.6219,1.6208,1.6203,1.6165,1.6148,1.6114,1.6088,1.607,1.6068,1.6057,1.6077,1.6071,1.6083,1.6081,1.613,1.6133,1.6079,1.608,1.608,0,1.6395,1.6394,1.6355,1.6347,1.6331,1.6318,1.6306,1.6271,1.626,1.6229,1.6227,1.6208,1.619,1.6165,1.6135,1.6114,1.61,1.6119,1.6097,1.6105,1.6097,1.6096,1.6095,1.6123,1.6124,1.6124,1.6125,0,1.6443,1.6427,1.6412,1.6391,1.6378,1.636,1.6339,1.6335,1.6294,1.6284,1.6266,1.6253,1.6226,1.6207,1.6182,1.6163,1.6136,1.6133,1.6133,1.6141,1.6151,1.6143,1.6087,1.6131,1.613,1.613,1.613,1.6129,1.6481,1.6478,1.645,1.6434,1.6415,1.6397,1.639,1.6365,1.635,1.6326,1.6306,1.629,1.6263,1.6227,1.621,1.6197,1.6184,1.6186,1.6186,1.6186,1.6188,1.6156,1.6193,1.6192,1.6192,1.6192,1.6192,0,1.6525,1.6505,1.6491,1.6464,1.6451,1.6429,1.6406,1.6396,1.6382,1.636,1.6344,1.6323,1.6304,1.6273,1.6252,1.6247,1.6234,1.6242,1.624,1.6236,1.6202,1.6202,1.6252,1.6252,1.6252,1.6252,1.6252,1.6252,1.6545,1.6537,1.6519,1.6501,1.6481,1.6466,1.6454,1.6437,1.6418,1.6397,1.6382,1.6362,1.6336,1.6312,1.6293,1.6285,1.6277,1.6288,1.6275,1.6244,1.6238,1.6233,1.6232,1.6288,1.6288,1.6309,1.6309,1.631]}]]